{"data":{"norad_id":60274,"intl_designator":"2024-131V","name":"STARLINK-32155","alt_names":[],"object_type":"PAYLOAD","status":"ACTIVE","operator":null,"country":"US","launch_date":"2024-07-27","launch_site_code":"AFETR","launch_vehicle":null,"mission":null,"orbit_class":"UNKNOWN","rcs_meters":null,"size_class":null,"mass_kg":null,"dimensions":null,"purposes":["comms"],"wikipedia_slug":null,"has_3d_model":false,"image_url":null,"decayed_at":null,"tle_current":{"epoch":"2026-09-21T02:29:30.228576Z","epoch_age_seconds":129394,"freshness":"FRESH","line1":"1 60274U 24131V   26264.10382209 -.00000081  00000+0  91543-5 0  9991","line2":"2 60274  53.1603 223.6027 0001442  90.9293 269.1874 15.31705265121550","mean_motion":15.31705265,"eccentricity":0.0001442,"inclination_deg":53.1603,"raan_deg":223.6027,"arg_perigee_deg":90.9293,"mean_anomaly_deg":269.1874,"bstar":9.1543e-6,"rev_number":12155,"period_min":94.012864805293,"perigee_km":469.73669478003,"apogee_km":471.71190637912,"semimajor_km":6848.8613005796,"source":"CELESTRAK","updated_at":"2026-09-22T09:00:49.190208Z"}}}